Weather History for Northway, AK

Change the Weather History Date:

Monday, December 31, 2012

  Actual Average Record
Temperature  
Mean Temperature -12 °F -  
Max Temperature -7 °F -5 °F 24 °F (1967)
Min Temperature -18 °F -21 °F -62 °F (1949)
Degree Days  
Heating Degree Days 78    
Moisture  
Dew Point -17 °F    
Average Humidity 79    
Maximum Humidity 83    
Minimum Humidity 74    
Precipitation  
Precipitation 0.00 in - - ()
Snow  
Snow 0.00 in - - ()
Snow Depth 12.00 in    
Sea Level Pressure  
Sea Level Pressure 30.01 in    
Wind  
Wind Speed 2 mph (NNW)    
Max Wind Speed 7 mph    
Max Gust Speed -    
Visibility 10 miles    
Events      
Averages and records for this station are not official NWS values.
T = Trace of Precipitation, MM = Missing Value Source: NWS Daily Summary

Daily Weather History Graph

Daily Weather History Graph

Search for Another Location

Airport:

Trip Planner

Search our weather history database for the weather conditions in past years. The results will help you decide how hot, cold, wet, or windy it might be!

Date:

Astronomy

Dec. 31, 2012 Rise Set
Actual Time 10:02 AM AKST 2:59 PM AKST
Civil Twilight 8:53 AM AKST 4:08 PM AKST
Nautical Twilight 7:49 AM AKST 5:12 PM AKST
Astronomical Twilight 6:52 AM AKST 6:09 PM AKST
Moon 8:09 PM AKST (12/31) 10:25 AM AKST (12/31)
Length of Visible Light 7h 15m
Length of Day
4h 57m
Waning Gibbous, 89% of the Moon is Illuminated
Dec 31
Waning Gibbous
Jan 4
Last Quarter
Jan 11
New
Jan 18
First Quarter
Jan 26
Full

Hourly Weather History & Observations

Time (AKST) Temp. Windchill Dew Point Humidity Pressure Visibility Wind Dir Wind Speed Gust Speed Precip Events Conditions
12:53 AM -11.9 °F -27.3 °F -17.0 °F 78% 29.76 in 10.0 mi West 6.9 mph - N/A   Mostly Cloudy
1:53 AM -9.9 °F - -15.0 °F 78% 29.77 in 10.0 mi Calm Calm - N/A   Mostly Cloudy
3:53 AM -9.0 °F -20.4 °F -15.0 °F 75% 29.81 in 10.0 mi East 4.6 mph - N/A   Mostly Cloudy
4:53 AM -8.0 °F - -13.0 °F 79% 29.83 in 10.0 mi Calm Calm - N/A   Mostly Cloudy
5:53 AM -8.0 °F -22.5 °F -11.9 °F 83% 29.86 in 10.0 mi NNW 6.9 mph - N/A   Mostly Cloudy
6:53 AM -9.0 °F - -13.0 °F 83% 29.87 in 10.0 mi Calm Calm - N/A   Mostly Cloudy
7:53 AM -9.0 °F -18.2 °F -14.1 °F 79% 29.89 in 10.0 mi East 3.5 mph - N/A   Mostly Cloudy
8:53 AM -8.0 °F - -13.0 °F 79% 29.94 in 10.0 mi Calm Calm - N/A   Mostly Cloudy
9:53 AM -11.0 °F - -15.0 °F 83% 29.96 in 10.0 mi Calm Calm - N/A   Mostly Cloudy
10:53 AM -13.0 °F - -17.0 °F 82% 30.01 in 10.0 mi Calm Calm - N/A   Scattered Clouds
11:53 AM -9.9 °F - -14.1 °F 82% 30.04 in 10.0 mi Calm Calm - N/A   Scattered Clouds
12:53 PM -8.0 °F - -13.0 °F 79% 30.06 in 10.0 mi Calm Calm - N/A   Scattered Clouds
1:53 PM -7.1 °F - -13.0 °F 75% 30.06 in 10.0 mi Calm Calm - N/A   Scattered Clouds
2:53 PM -11.0 °F - -15.0 °F 83% 30.08 in 10.0 mi Calm Calm - N/A   Partly Cloudy
3:53 PM -13.0 °F - -17.0 °F 82% 30.11 in 10.0 mi Calm Calm - N/A   Partly Cloudy
4:53 PM -16.1 °F - -20.9 °F 79% 30.14 in 10.0 mi Calm Calm - N/A   Partly Cloudy
5:53 PM -16.1 °F - -22.0 °F 74% 30.14 in 10.0 mi Calm Calm - N/A   Clear
6:53 PM -17.0 °F - -22.0 °F 78% 30.15 in 10.0 mi Calm Calm - N/A   Clear
7:53 PM -18.0 °F - -23.1 °F 78% 30.17 in 10.0 mi Calm Calm - N/A   Clear
8:53 PM -18.9 °F -29.5 °F -24.0 °F 78% 30.16 in 10.0 mi WSW 3.5 mph - N/A   Clear
9:53 PM -17.0 °F - -22.0 °F 78% 30.15 in 10.0 mi Calm Calm - N/A   Scattered Clouds
10:53 PM -17.0 °F - -22.0 °F 78% 30.13 in 10.0 mi Calm Calm - N/A   Mostly Cloudy
11:53 PM -17.0 °F - -22.0 °F 78% 30.13 in 10.0 mi Calm Calm - N/A   Scattered Clouds